TimeEDT,TemperatureF,Dew PointF,Humidity,Sea Level PressureIn,VisibilityMPH,Wind Direction,Wind SpeedMPH,Gust SpeedMPH,PrecipitationIn,Events,Conditions,WindDirDegrees,DateUTC
12:54 AM,37.9,28.0,68,30.09,10.0,West,8.1,-,N/A,,Clear,270,2013-10-28 04:54:00
1:54 AM,35.1,28.0,76,30.09,10.0,WSW,5.8,-,N/A,,Clear,250,2013-10-28 05:54:00
2:54 AM,35.1,28.0,76,30.09,10.0,West,9.2,-,N/A,,Clear,260,2013-10-28 06:54:00
3:54 AM,34.0,28.0,79,30.09,10.0,West,9.2,-,N/A,,Clear,260,2013-10-28 07:54:00
4:54 AM,34.0,28.9,82,30.11,10.0,West,8.1,-,N/A,,Clear,260,2013-10-28 08:54:00
5:54 AM,35.1,28.9,78,30.11,10.0,West,8.1,-,N/A,,Clear,270,2013-10-28 09:54:00
6:54 AM,32.0,28.0,85,30.12,10.0,WSW,5.8,-,N/A,,Clear,240,2013-10-28 10:54:00
7:54 AM,33.1,28.9,85,30.14,10.0,WSW,6.9,-,N/A,,Clear,250,2013-10-28 11:54:00
8:54 AM,37.9,30.9,76,30.15,10.0,WSW,8.1,-,N/A,,Clear,240,2013-10-28 12:54:00
9:54 AM,45.0,28.9,53,30.16,10.0,WSW,11.5,-,N/A,,Clear,240,2013-10-28 13:54:00
10:54 AM,48.0,28.9,48,30.15,10.0,WSW,18.4,28.8,N/A,,Clear,250,2013-10-28 14:54:00
11:54 AM,51.1,30.0,44,30.14,10.0,WSW,20.7,31.1,N/A,,Clear,240,2013-10-28 15:54:00
12:54 PM,52.0,30.9,45,30.13,10.0,West,17.3,29.9,N/A,,Clear,270,2013-10-28 16:54:00
1:54 PM,53.1,30.9,43,30.13,10.0,West,13.8,23.0,N/A,,Overcast,280,2013-10-28 17:54:00
2:54 PM,53.1,32.0,45,30.14,10.0,West,19.6,26.5,N/A,,Mostly Cloudy,270,2013-10-28 18:54:00
3:54 PM,53.1,30.9,43,30.17,10.0,West,21.9,26.5,N/A,,Overcast,270,2013-10-28 19:54:00
4:54 PM,51.1,30.0,44,30.19,10.0,West,10.4,-,N/A,,Overcast,270,2013-10-28 20:54:00
5:54 PM,46.9,30.9,54,30.21,10.0,WNW,4.6,-,N/A,,Overcast,300,2013-10-28 21:54:00
6:54 PM,48.0,30.0,50,30.26,10.0,NNE,3.5,-,N/A,,Overcast,20,2013-10-28 22:54:00
7:54 PM,44.1,28.9,55,30.30,10.0,North,10.4,-,N/A,,Mostly Cloudy,360,2013-10-28 23:54:00
8:54 PM,42.1,28.0,58,30.31,10.0,North,10.4,-,N/A,,Clear,360,2013-10-29 00:54:00
9:54 PM,39.9,27.0,60,30.33,10.0,North,5.8,-,N/A,,Clear,360,2013-10-29 01:54:00
10:54 PM,37.0,26.1,65,30.35,10.0,NNE,5.8,-,N/A,,Clear,20,2013-10-29 02:54:00
11:54 PM,36.0,23.0,59,30.35,10.0,North,5.8,-,N/A,,Clear,10,2013-10-29 03:54:00